Baker, OR

12:42 AM PST on February 25, 2018 (GMT -0800)
Baker City Municipal

Weather History for KBKE - November, 2012

Change the Weather History Date:

Tuesday, November 27, 2012

  Actual Average Record
Temperature  
Mean Temperature 31 °F 29 °F  
Max Temperature 43 °F 38 °F 56 °F (1953)
Min Temperature 18 °F 19 °F -2 °F (1979)
Degree Days  
Heating Degree Days 34 36  
Month to date heating degree days 758 847  
Since 1 July heating degree days 1729 1926  
Cooling Degree Days 0 0  
Month to date cooling degree days 0 0  
Year to date cooling degree days 184 169  
Moisture  
Dew Point 24 °F    
Average Humidity 76    
Maximum Humidity 91    
Minimum Humidity 60    
Precipitation  
Precipitation 0.00 in 0.04 in 0.60 in (1995)
Month to date precipitation 0.43 0.81  
Year to date precipitation 7.35 9.06  
Sea Level Pressure  
Sea Level Pressure 30.25 in    
Wind  
Wind Speed 6 mph (SE)    
Max Wind Speed 14 mph    
Max Gust Speed 18 mph    
Visibility 10 miles    
Events      
T = Trace of Precipitation, MM = Missing Value Source: NWS Daily Summary

Daily Weather History Graph

Daily Weather History Graph

Search for Another Location

Airport or City:

Trip Planner

Search our weather history database for the weather conditions in past years. The results will help you decide how hot, cold, wet, or windy it might be!

Date:

Astronomy

Nov. 27, 2012 Rise Set
Actual Time 7:04 AM PST 4:13 PM PST
Civil Twilight 6:31 AM PST 4:45 PM PST
Nautical Twilight 5:55 AM PST 5:22 PM PST
Astronomical Twilight 5:20 AM PST 5:57 PM PST
Moon 3:48 PM PST (11/27) 6:12 AM PST (11/27)
Length of Visible Light 10h 14m
Length of Day
9h 08m
Waxing Gibbous, 99% of the Moon is Illuminated
Nov 27
Waxing Gibbous
Nov 28
Full
Dec 6
Last Quarter
Dec 13
New
Dec 19
First Quarter

Hourly Weather History & Observations

Time (PST) Temp. Windchill Dew Point Humidity Pressure Visibility Wind Dir Wind Speed Gust Speed Precip Events Conditions
12:53 AM 19.0 °F - 17.1 °F 92% 30.30 in 10.0 mi Calm Calm - N/A   Clear
1:53 AM 19.0 °F - 18.0 °F 96% 30.30 in 10.0 mi Calm Calm - N/A   Partly Cloudy
2:53 AM 19.0 °F - 17.1 °F 92% 30.30 in 10.0 mi Calm Calm - N/A   Clear
3:53 AM 21.2 °F 16.4 °F 17.6 °F 86% 30.20 in 10.0 mi SE 3.5 mph - N/A   Clear
4:53 AM 19.0 °F - 18.0 °F 96% 30.31 in 10.0 mi Calm Calm - N/A   Clear
5:53 AM 19.9 °F - 18.0 °F 92% 30.31 in 10.0 mi Calm Calm - N/A   Clear
6:53 AM 19.9 °F 12.1 °F 18.0 °F 92% 30.31 in 10.0 mi SSE 5.8 mph - N/A   Clear
7:53 AM 26.1 °F 18.4 °F 23.0 °F 88% 30.32 in 10.0 mi SSE 6.9 mph - N/A   Clear
8:53 AM 28.9 °F - 25.0 °F 85% 30.32 in 10.0 mi Calm Calm - N/A   Clear
9:53 AM 36.0 °F 28.0 °F 28.9 °F 76% 30.31 in 10.0 mi ESE 11.5 mph - N/A   Clear
10:53 AM 37.9 °F 30.0 °F 28.0 °F 68% 30.30 in 10.0 mi ESE 12.7 mph - N/A   Clear
11:53 AM 39.2 °F 37.0 °F 28.4 °F 65% 30.19 in 10.0 mi Variable 3.5 mph - N/A   Clear
12:53 PM 41.0 °F 38.0 °F 28.9 °F 62% 30.25 in 10.0 mi Variable 4.6 mph - N/A   Clear
1:53 PM 41.0 °F 35.2 °F 28.0 °F 60% 30.24 in 10.0 mi East 9.2 mph - N/A   Clear
2:53 PM 39.0 °F 32.8 °F 28.0 °F 65% 30.23 in 10.0 mi ESE 9.2 mph - N/A   Clear
3:53 PM 37.0 °F 31.0 °F 27.0 °F 67% 30.22 in 10.0 mi ESE 8.1 mph - N/A   Clear
4:53 PM 35.1 °F 26.4 °F 26.1 °F 70% 30.22 in 10.0 mi ESE 12.7 mph - N/A   Clear
5:53 PM 35.1 °F 27.9 °F 26.1 °F 70% 30.22 in 10.0 mi ESE 9.2 mph - N/A   Clear
6:53 PM 34.0 °F 26.0 °F 26.1 °F 73% 30.23 in 10.0 mi East 10.4 mph - N/A   Clear
7:53 PM 34.0 °F 29.8 °F 26.1 °F 73% 30.21 in 10.0 mi SSE 4.6 mph - N/A   Clear
8:53 PM 32.0 °F 28.7 °F 26.1 °F 79% 30.21 in 10.0 mi SSW 3.5 mph - N/A   Clear
9:53 PM 32.0 °F 27.5 °F 26.1 °F 79% 30.19 in 10.0 mi SSE 4.6 mph - N/A   Clear
10:53 PM 28.9 °F 22.8 °F 25.0 °F 85% 30.19 in 10.0 mi South 5.8 mph - N/A   Clear
11:53 PM 28.9 °F 21.9 °F 25.0 °F 85% 30.18 in 10.0 mi South 6.9 mph - N/A   Clear